Location: Lancaster
(54.0470°N, 2.8020°W)
Time: 12:36:27
(UTC+00:00)

COSMOS 2428 - Visible Passes

Search period start: 24 February 2017 00:00
Search period end: 06 March 2017 00:00
Orbit: 848 x 855 km, 70.9° (Epoch: 24 February)

Date Brightness Start Highest point End Pass type
(mag) Time Alt. Az. Time Alt. Az. Time Alt. Az.
24 Feb 3.3 19:37:22 10° NW 19:42:58 58° WSW 19:48:32 10° SSE visible
24 Feb 5.4 21:24:11 10° WNW 21:26:03 12° W 21:27:55 10° WSW visible
25 Feb 3.3 19:25:18 10° NW 19:30:53 58° WSW 19:36:27 10° SSE visible
25 Feb 5.5 21:12:07 10° WNW 21:13:58 12° W 21:15:49 10° WSW visible
26 Feb 3.3 19:13:14 10° NW 19:18:49 58° WSW 19:24:22 10° SSE visible
26 Feb 5.5 21:00:04 10° WNW 21:01:53 12° W 21:03:43 10° WSW visible
27 Feb 3.4 19:01:09 10° NW 19:06:45 58° WSW 19:12:18 10° SSE visible
27 Feb 5.6 20:48:01 10° WNW 20:49:50 12° W 20:51:38 10° WSW visible
28 Feb 3.4 18:49:05 10° NW 18:54:40 58° WSW 19:00:14 10° SSE visible
28 Feb 5.6 20:35:57 10° WNW 20:37:45 11° W 20:39:32 10° WSW visible
01 Mar 3.5 18:37:00 10° NW 18:42:36 58° WSW 18:48:09 10° SSE visible
01 Mar 5.7 20:23:54 10° WNW 20:25:40 11° W 20:27:26 10° WSW visible
02 Mar 3.5 18:24:56 10° NW 18:30:31 57° WSW 18:36:05 10° SSE visible
02 Mar 5.8 20:11:51 10° WNW 20:13:36 11° W 20:15:21 10° WSW visible
03 Mar 5.8 19:59:47 10° WNW 20:01:31 11° W 20:03:15 10° WSW visible
04 Mar 5.9 19:47:44 10° WNW 19:49:27 11° W 19:51:09 10° WSW visible
05 Mar 6.0 19:35:41 10° WNW 19:37:23 11° W 19:39:04 10° WSW visible
